Weather reports worldwide

Advertisment
Goteborg/Landvetter, Sweden (2526): temperature & dewpoint: 26.06.2020 07:00:00 - 02.07.2020 07:00:00 (CEST)Goteborg/Landvetter, Sweden (2526): wind speed: 26.06.2020 07:00:00 - 02.07.2020 07:00:00 (CEST)Goteborg/Landvetter, Sweden (2526): wind direction: 26.06.2020 07:00:00 - 02.07.2020 07:00:00 (CEST)Goteborg/Landvetter, Sweden (2526): reduced air pressure: 26.06.2020 07:00:00 - 02.07.2020 07:00:00 (CEST)Goteborg/Landvetter, Sweden (2526): visibility: 26.06.2020 07:00:00 - 02.07.2020 07:00:00 (CEST)
Date & Time tt [°C] td [°C] ff [km/h] ff [kn] dd ppp [hPa] vv [km]
02.07.2020 07:00:00 12,4 10,1 14 8 SW 1001,4 45
02.07.2020 06:00:00 12,4 11,3 14 8 SW 1000,9 25
02.07.2020 05:00:00 11,3 10,2 14 8 WSW 1000,8 40
02.07.2020 04:00:00 11,0 9,9 11 6 SW 1000,8 40
02.07.2020 03:00:00 11,9 11,1 7 4 SSW 1000,8 16
02.07.2020 02:00:00 12,3 11,4 7 4 SW 1000,9 30
02.07.2020 01:00:00 12,2 11,4 7 4 SSW 1001,0 23
02.07.2020 00:00:00 12,3 11,2 11 6 S 1001,2 30
01.07.2020 23:00:00 11,7 10,8 7 4 S 1001,2 40
01.07.2020 22:00:00 11,7 10,1 11 6 SSW 1001,3 50
01.07.2020 21:00:00 12,5 11,2 14 8 SSW 1001,1 50
01.07.2020 20:00:00 12,9 11,5 11 6 SW 1001,3 40
01.07.2020 19:00:00 13,1 11,7 18 10 SW 1001,4 35
01.07.2020 18:00:00 13,4 11,5 22 12 SSW 1001,3 45
01.07.2020 17:00:00 14,8 9,8 25 14 SW 1001,1 50
01.07.2020 16:00:00 15,8 10,1 25 14 W 1000,7 40
01.07.2020 15:00:00 16,4 9,8 25 14 WSW 1000,2 50
01.07.2020 14:00:00 16,5 8,7 25 14 W 999,9 50
01.07.2020 13:00:00 16,3 9,5 32 18 WSW 999,4 35
01.07.2020 12:00:00 16,3 10,2 25 14 W 998,7 30
01.07.2020 11:00:00 16,9 11,6 22 12 WSW 997,9 29
01.07.2020 10:00:00 16,3 11,7 25 14 WSW 997,3 23
01.07.2020 09:00:00 15,6 11,0 22 12 WSW 996,7 30
01.07.2020 08:00:00 14,6 11,6 25 14 WSW 996,2 30
01.07.2020 07:00:00 13,9 11,6 22 12 WSW 995,8 30
01.07.2020 06:00:00 13,5 11,2 22 12 WSW 995,4 25
01.07.2020 05:00:00 13,3 11,0 18 10 WSW 995,2 35
01.07.2020 04:00:00 13,2 10,7 29 16 WSW 994,9 29
01.07.2020 03:00:00 13,0 10,5 29 16 WSW 994,6 35
01.07.2020 02:00:00 13,3 10,7 29 16 WSW 994,2 30
01.07.2020 01:00:00 13,3 10,8 32 18 WSW 993,9 40
01.07.2020 00:00:00 13,2 10,9 32 18 WSW 993,8 40
30.06.2020 23:00:00 13,0 11,1 25 14 WSW 993,8 40
30.06.2020 22:00:00 12,5 10,9 25 14 SW 993,6 11
30.06.2020 21:00:00 12,4 10,6 22 12 SW 993,7 50
30.06.2020 20:00:00 12,3 11,0 25 14 SW 994,0 50
30.06.2020 19:00:00 11,8 10,2 25 14 WSW 994,2 9
30.06.2020 18:00:00 14,4 12,6 18 10 SW 994,4 50
30.06.2020 17:00:00 13,9 12,1 25 14 SW 995,0 12
30.06.2020 16:00:00 13,6 12,3 25 14 SW 995,2 35
30.06.2020 15:00:00 14,6 11,2 32 18 SW 995,1 20
30.06.2020 14:00:00 15,2 12,0 29 16 SW 995,3 35
30.06.2020 13:00:00 15,3 11,5 32 18 SW 995,7 35
30.06.2020 12:00:00 14,1 12,1 29 16 SW 996,3 24
30.06.2020 11:00:00 13,2 11,9 29 16 SW 996,8 16
30.06.2020 10:00:00 14,1 10,9 25 14 SW 997,0 23
30.06.2020 09:00:00 13,9 11,9 22 12 SW 997,4 40
30.06.2020 08:00:00 13,6 11,8 18 10 SSW 997,8 30
30.06.2020 07:00:00 12,1 11,2 18 10 SSW 998,3 45
30.06.2020 06:00:00 12,2 11,3 18 10 SSW 998,8 5
30.06.2020 05:00:00 12,6 11,5 18 10 S 999,2 26
30.06.2020 04:00:00 12,6 11,8 14 8 S 1000,0 21
30.06.2020 03:00:00 12,6 11,7 18 10 S 1000,9 15
30.06.2020 02:00:00 12,5 10,9 18 10 S 1001,9 26
30.06.2020 01:00:00 12,9 10,4 18 10 S 1002,9 50
30.06.2020 00:00:00 12,6 11,0 14 8 SSE 1003,5 40
29.06.2020 23:00:00 13,9 9,9 11 6 SSE 1003,8 45
29.06.2020 22:00:00 13,1 9,5 11 6 S 1004,8 50
29.06.2020 21:00:00 15,3 10,1 18 10 SW 1004,9 50
29.06.2020 20:00:00 16,8 10,6 25 14 SSW 1005,0 50
29.06.2020 19:00:00 16,8 9,5 25 14 SSW 1005,1 50
29.06.2020 18:00:00 18,2 11,0 14 8 S 1005,4 30
29.06.2020 17:00:00 19,1 10,1 25 14 S 1006,0 50
29.06.2020 16:00:00 19,7 10,1 29 16 S 1006,3 50
29.06.2020 15:00:00 19,4 11,4 29 16 S 1006,9 24
29.06.2020 14:00:00 15,8 10,6 18 10 S 1008,1 40
29.06.2020 13:00:00 17,8 9,7 18 10 SW 1008,0 35
29.06.2020 12:00:00 18,1 10,0 18 10 SW 1008,3 45
29.06.2020 11:00:00 16,9 10,3 22 12 SW 1008,7 40
29.06.2020 10:00:00 16,1 10,2 18 10 SW 1009,2 30
29.06.2020 09:00:00 15,6 10,8 18 10 SSW 1009,3 40
29.06.2020 08:00:00 15,1 11,5 14 8 SSW 1009,0 35
29.06.2020 07:00:00 13,9 11,9 11 6 S 1009,1 30
29.06.2020 06:00:00 12,4 11,3 7 4 S 1009,2 30
29.06.2020 05:00:00 11,4 10,9 11 6 S 1009,5 40
29.06.2020 04:00:00 11,9 11,1 7 4 SSE 1009,5 5
29.06.2020 03:00:00 12,8 12,0 0 0 N 1009,5 0,2
29.06.2020 02:00:00 12,9 12,1 4 2 WSW 1009,8 22
29.06.2020 01:00:00 13,2 12,4 0 0 N 1009,4 3,9
29.06.2020 00:00:00 14,0 12,7 4 2 NW 1009,3 9
28.06.2020 23:00:00 14,8 13,0 7 4 WNW 1009,1 23
28.06.2020 22:00:00 15,5 13,3 14 8 SSW 1008,8 35
28.06.2020 21:00:00 16,2 13,9 14 8 SSW 1008,7 45
28.06.2020 20:00:00 16,2 14,7 14 8 SW 1008,7 45
28.06.2020 19:00:00 17,0 15,5 7 4 S 1008,4 9
28.06.2020 18:00:00 17,0 15,0 11 6 SSW 1008,7 45
28.06.2020 17:00:00 17,2 15,2 22 12 SSW 1008,8 26
28.06.2020 16:00:00 18,7 16,7 18 10 SW 1008,1 29
28.06.2020 15:00:00 21,0 16,4 25 14 SW 1007,6 30
28.06.2020 14:00:00 21,4 16,8 25 14 SSW 1007,6 50
28.06.2020 13:00:00 20,9 16,9 25 14 SSW 1007,7 50
28.06.2020 12:00:00 21,0 17,8 14 8 SSE 1007,5 19
28.06.2020 11:00:00 20,4 17,8 14 8 S 1007,7 23
28.06.2020 10:00:00 19,8 17,2 14 8 S 1007,3 25
28.06.2020 09:00:00 19,8 17,0 11 6 S 1007,5 29
28.06.2020 08:00:00 18,7 16,3 11 6 S 1007,6 45
28.06.2020 07:00:00 17,5 15,7 14 8 SSE 1007,5 35
28.06.2020 06:00:00 17,2 15,7 11 6 SE 1007,7 35
28.06.2020 05:00:00 16,7 15,2 11 6 SSE 1008,0 40
28.06.2020 04:00:00 17,0 15,0 11 6 SSE 1008,0 50
28.06.2020 03:00:00 16,6 15,6 11 6 SE 1008,1 35
28.06.2020 02:00:00 16,4 15,4 14 8 SE 1008,3 45
28.06.2020 01:00:00 17,0 15,5 14 8 SE 1008,2 45
28.06.2020 00:00:00 17,2 15,7 14 8 ESE 1008,4 50
27.06.2020 23:00:00 17,1 16,0 14 8 SE 1008,7 50
27.06.2020 22:00:00 17,5 16,0 4 2 ESE 1008,4 50
27.06.2020 21:00:00 17,1 16,0 4 2 ENE 1008,6 50
27.06.2020 20:00:00 16,7 15,7 4 2 NW 1009,1 12
27.06.2020 19:00:00 18,2 15,6 7 4 W 1008,7 50
27.06.2020 18:00:00 25,9 15,0 14 8 W 1007,3 50
27.06.2020 17:00:00 26,5 15,2 18 10 WNW 1008,0 50
27.06.2020 16:00:00 26,2 16,2 14 8 WSW 1008,7 26
27.06.2020 15:00:00 27,8 14,1 14 8 SE 1008,9 35
27.06.2020 14:00:00 27,3 14,0 11 6 SSE 1009,4 35
27.06.2020 13:00:00 26,6 14,0 11 6 ESE 1010,0 30
27.06.2020 12:00:00 26,7 13,8 14 8 SE 1010,6 40
27.06.2020 11:00:00 25,8 13,3 14 8 E 1010,9 35
27.06.2020 10:00:00 24,9 13,5 14 8 ESE 1011,5 35
27.06.2020 09:00:00 23,6 12,9 11 6 E 1012,0 45
27.06.2020 08:00:00 22,4 12,6 11 6 E 1012,4 45
27.06.2020 07:00:00 20,0 13,5 11 6 ESE 1012,9 28
27.06.2020 06:00:00 18,9 14,6 11 6 ENE 1013,5 35
27.06.2020 05:00:00 18,0 13,3 7 4 E 1014,0 50
27.06.2020 04:00:00 18,6 13,7 4 2 E 1014,2 50
27.06.2020 03:00:00 19,2 13,4 4 2 ENE 1014,7 50
27.06.2020 02:00:00 19,4 13,1 4 2 ENE 1015,0 50
27.06.2020 01:00:00 20,3 13,3 4 2 SW 1015,5 50
27.06.2020 00:00:00 20,8 16,8 4 2 SW 1015,6 35
26.06.2020 23:00:00 20,5 16,5 0 0 N 1015,7 50
26.06.2020 22:00:00 21,5 16,7 0 0 N 1015,6 50
26.06.2020 21:00:00 23,8 16,3 4 2 WNW 1015,5 50
26.06.2020 20:00:00 24,8 17,5 7 4 N 1015,5 30
26.06.2020 19:00:00 25,2 15,8 7 4 W 1016,0 50
26.06.2020 18:00:00 25,3 16,4 7 4 WNW 1016,4 35
26.06.2020 17:00:00 23,4 16,9 11 6 WSW 1017,3 40
26.06.2020 16:00:00 25,0 16,7 7 4 NW 1017,3 50
26.06.2020 15:00:00 25,9 16,4 7 4 S 1018,1 50
26.06.2020 14:00:00 27,0 15,4 18 10 S 1018,5 40
26.06.2020 13:00:00 26,2 15,3 14 8 SSE 1018,9 40
26.06.2020 12:00:00 25,4 15,4 18 10 S 1019,4 45
26.06.2020 11:00:00 25,0 14,5 14 8 SE 1019,9 40
26.06.2020 10:00:00 24,6 13,2 14 8 SE 1020,3 45
26.06.2020 09:00:00 23,0 12,3 14 8 SE 1020,9 30
26.06.2020 08:00:00 21,6 12,7 11 6 SE 1021,3 45
26.06.2020 07:00:00 19,5 12,0 14 8 SE 1021,5 50

tt = temperature
td = dewpoint
ff = wind speed
dd = wind direction
ppp = reduced air pressure
vv = visibility

Next stations